Location: *
(46.0770°N, 1.6444°E)
Time: 19:56:04
(UTC+00:00)

Spot 2 Rocket - Pass Details

Date: 16 September 2019
Orbit: 758 x 772 km, 98.6° (Epoch: 22 October)

Event Time Altitude Azimuth Distance (km) Brightness Sun altitude
Exits shadow 19:57:19 36° 87° (E) 1,192 4.0 -19.8°
Maximum altitude 19:58:03 38° 67° (ENE) 1,149 4.1 -19.9°
Drops below altitude 10° 20:02:42 10° 0° (N) 2,299 6.3 -20.6°
Sets 20:05:07 0° 353° (N) 3,228 7.2 -21.0°
